Change the Weather History Date:

Saturday, April 6, 2013

  Actual Average (KP28) Record (KP28)
Temperature  
Mean Temperature 62 °F 53 °F  
Max Temperature 73 °F 66 °F 97 °F (1954)
Min Temperature 50 °F 40 °F 18 °F (1936)
Degree Days  
Heating Degree Days 4 12  
Month to date heating degree days 78  
Since 1 July heating degree days 4175  
Cooling Degree Days 0 0  
Month to date cooling degree days 0  
Year to date cooling degree days 2  
Growing Degree Days 12 (Base 50)    
Moisture  
Dew Point 39 °F    
Average Humidity 50    
Maximum Humidity 82    
Minimum Humidity 22    
Precipitation  
Precipitation 0.00 in 0.07 in 0.60 in (1921)
Month to date precipitation 0.38  
Year to date precipitation 4.39  
Snow  
Snow 0.00 in 0.00 in - ()
Month to date snowfall 0.0  
Since 1 July snowfall 8.5  
Snow Depth -    
Sea Level Pressure  
Sea Level Pressure 29.80 in    
Wind  
Wind Speed 15 mph (WNW)    
Max Wind Speed 25 mph    
Max Gust Speed 31 mph    
Visibility 10 miles    
Events      
T = Trace of Precipitation, MM = Missing Value Source: NWS Daily Summary

Daily Weather History Graph

Daily Weather History Graph

Search for Another Location

Airport or City:

Trip Planner

Search our weather history database for the weather conditions in past years. The results will help you decide how hot, cold, wet, or windy it might be!

Date:

Astronomy

Apr. 06, 2013 Rise Set
Actual Time 7:12 AM CDT 8:02 PM CDT
Civil Twilight 6:45 AM CDT 8:29 PM CDT
Nautical Twilight 6:14 AM CDT 9:00 PM CDT
Astronomical Twilight 5:41 AM CDT 9:33 PM CDT
Moon 4:53 AM CDT (4/6) 4:36 PM CDT (4/6)
Length of Visible Light 13h 43m
Length of Day
12h 50m
Waning Crescent, 15% of the Moon is Illuminated
Apr 6
Waning Crescent
Apr 10
New
Apr 18
First Quarter
Apr 25
Full
May 2
Last Quarter

Hourly Weather History & Observations

Time (CDT) Temp. Dew Point Humidity Pressure Visibility Wind Dir Wind Speed Gust Speed Precip Events Conditions
12:15 AM 51.8 °F 44.6 °F 76% 29.76 in 10.0 mi South 20.7 mph 28.8 mph N/A   Clear
12:35 AM 51.8 °F 44.6 °F 76% 29.75 in 10.0 mi South 19.6 mph 26.5 mph N/A   Clear
12:55 AM 51.8 °F 44.6 °F 76% 29.74 in 10.0 mi South 21.9 mph 29.9 mph N/A   Clear
1:15 AM 51.8 °F 44.6 °F 76% 29.74 in 10.0 mi South 19.6 mph 28.8 mph N/A   Clear
1:35 AM 51.8 °F 44.6 °F 76% 29.74 in 10.0 mi South 21.9 mph 27.6 mph N/A   Clear
1:55 AM 51.8 °F 42.8 °F 71% 29.72 in 10.0 mi South 25.3 mph 31.1 mph N/A   Clear
2:15 AM 51.8 °F 42.8 °F 71% 29.72 in 10.0 mi South 23.0 mph 27.6 mph N/A   Clear
2:35 AM 51.8 °F 42.8 °F 71% 29.71 in 10.0 mi South 23.0 mph 31.1 mph N/A   Clear
2:55 AM 51.8 °F 42.8 °F 71% 29.71 in 10.0 mi South 20.7 mph - N/A   Clear
3:15 AM 50.0 °F 42.8 °F 76% 29.71 in 10.0 mi South 21.9 mph - N/A   Clear
3:35 AM 50.0 °F 42.8 °F 76% 29.70 in 10.0 mi South 20.7 mph 27.6 mph N/A   Clear
3:55 AM 50.0 °F 42.8 °F 76% 29.69 in 10.0 mi South 20.7 mph 25.3 mph N/A   Clear
4:15 AM 50.0 °F 42.8 °F 76% 29.69 in 10.0 mi South 20.7 mph - N/A   Clear
4:35 AM 50.0 °F 42.8 °F 76% 29.70 in 10.0 mi SSW 17.3 mph - N/A   Clear
4:55 AM 50.0 °F 42.8 °F 76% 29.69 in 10.0 mi South 19.6 mph 24.2 mph N/A   Clear
5:15 AM 50.0 °F 42.8 °F 76% 29.69 in 10.0 mi SSW 15.0 mph - N/A   Clear
5:55 AM 51.8 °F 42.8 °F 71% 29.72 in 10.0 mi SW 12.7 mph - N/A   Clear
6:15 AM 50.0 °F 42.8 °F 76% 29.72 in 10.0 mi SW 12.7 mph - N/A   Clear
6:35 AM 51.8 °F 42.8 °F 71% 29.73 in 10.0 mi SW 15.0 mph - N/A   Clear
6:55 AM 51.8 °F 42.8 °F 71% 29.74 in 10.0 mi SW 13.8 mph - N/A   Clear
7:15 AM 50.0 °F 42.8 °F 76% 29.74 in 10.0 mi SW 16.1 mph - N/A   Clear
7:35 AM 50.0 °F 42.8 °F 76% 29.75 in 10.0 mi SW 11.5 mph - N/A   Clear
7:55 AM 50.0 °F 42.8 °F 76% 29.77 in 10.0 mi WSW 9.2 mph - N/A   Clear
8:15 AM 50.0 °F 44.6 °F 82% 29.77 in 10.0 mi WSW 8.1 mph - N/A   Clear
8:35 AM 53.6 °F 44.6 °F 72% 29.77 in 10.0 mi Calm Calm - N/A   Clear
8:55 AM 55.4 °F 42.8 °F 63% 29.78 in 10.0 mi WNW 10.4 mph - N/A   Clear
9:15 AM 59.0 °F 42.8 °F 55% 29.78 in 10.0 mi NW 15.0 mph 18.4 mph N/A   Clear
9:55 AM 64.4 °F 41.0 °F 42% 29.79 in 10.0 mi NNW 17.3 mph 23.0 mph N/A   Clear
10:15 AM 64.4 °F 39.2 °F 40% 29.80 in 10.0 mi NNW 18.4 mph 28.8 mph N/A   Clear
10:35 AM 64.4 °F 41.0 °F 42% 29.81 in 10.0 mi NNW 18.4 mph - N/A   Clear
10:55 AM 66.2 °F 37.4 °F 35% 29.81 in 10.0 mi North 20.7 mph 26.5 mph N/A   Clear
11:15 AM 68.0 °F 37.4 °F 33% 29.82 in 10.0 mi NNW 19.6 mph - N/A   Clear
11:35 AM 68.0 °F 37.4 °F 33% 29.82 in 10.0 mi North 18.4 mph 21.9 mph N/A   Clear
11:55 AM 68.0 °F 37.4 °F 33% 29.83 in 10.0 mi North 18.4 mph - N/A   Clear
12:15 PM 68.0 °F 37.4 °F 33% 29.83 in 10.0 mi North 15.0 mph - N/A   Clear
12:35 PM 69.8 °F 37.4 °F 31% 29.83 in 10.0 mi North 16.1 mph 25.3 mph N/A   Clear
12:55 PM 69.8 °F 37.4 °F 31% 29.83 in 10.0 mi North 17.3 mph - N/A   Clear
1:15 PM 69.8 °F 37.4 °F 31% 29.83 in 10.0 mi North 12.7 mph 19.6 mph N/A   Clear
1:35 PM 69.8 °F 37.4 °F 31% 29.84 in 10.0 mi NNW 11.5 mph - N/A   Clear
1:55 PM 71.6 °F 37.4 °F 29% 29.84 in 10.0 mi NNW 13.8 mph 19.6 mph N/A   Clear
2:15 PM 71.6 °F 37.4 °F 29% 29.83 in 10.0 mi North 13.8 mph 17.3 mph N/A   Clear
2:35 PM 73.4 °F 37.4 °F 27% 29.83 in 10.0 mi NNW 15.0 mph 18.4 mph N/A   Clear
2:55 PM 71.6 °F 37.4 °F 29% 29.83 in 10.0 mi North 10.4 mph 18.4 mph N/A   Clear
3:15 PM 71.6 °F 35.6 °F 27% 29.84 in 10.0 mi NNW 10.4 mph - N/A   Clear
3:35 PM 71.6 °F 35.6 °F 27% 29.84 in 10.0 mi NNW 3.5 mph - N/A   Clear
3:55 PM 73.4 °F 35.6 °F 25% 29.84 in 10.0 mi NW 6.9 mph 17.3 mph N/A   Clear
4:15 PM 73.4 °F 35.6 °F 25% 29.83 in 10.0 mi WNW 10.4 mph - N/A   Clear
4:35 PM 73.4 °F 35.6 °F 25% 29.83 in 10.0 mi NW 9.2 mph - N/A   Clear
4:55 PM 73.4 °F 33.8 °F 23% 29.82 in 10.0 mi NNW 13.8 mph 18.4 mph N/A   Clear
5:15 PM 73.4 °F 32.0 °F 22% 29.82 in 10.0 mi North 9.2 mph - N/A   Clear
5:35 PM 71.6 °F 32.0 °F 23% 29.82 in 10.0 mi WNW 3.5 mph - N/A   Clear
5:55 PM 69.8 °F 32.0 °F 25% 29.82 in 10.0 mi Calm Calm - N/A   Clear
6:15 PM 69.8 °F 33.8 °F 27% 29.82 in 10.0 mi Calm Calm - N/A   Clear
6:35 PM 71.6 °F 33.8 °F 25% 29.82 in 10.0 mi North 10.4 mph - N/A   Clear
6:55 PM 71.6 °F 33.8 °F 25% 29.82 in 10.0 mi North 9.2 mph - N/A   Clear
7:15 PM 69.8 °F 35.6 °F 28% 29.83 in 10.0 mi NNW 5.8 mph - N/A   Clear
7:35 PM 68.0 °F 35.6 °F 30% 29.83 in 10.0 mi Calm Calm - N/A   Clear
7:55 PM 64.4 °F 37.4 °F 37% 29.84 in 10.0 mi Calm Calm - N/A   Clear
8:15 PM 62.6 °F 37.4 °F 39% 29.84 in 10.0 mi Calm Calm - N/A   Clear
8:35 PM 59.0 °F 41.0 °F 51% 29.85 in 10.0 mi Calm Calm - N/A   Clear
8:55 PM 55.4 °F 39.2 °F 54% 29.86 in 10.0 mi Calm Calm - N/A   Clear
9:15 PM 57.2 °F 39.2 °F 51% 29.87 in 10.0 mi Calm Calm - N/A   Clear
9:35 PM 59.0 °F 37.4 °F 45% 29.87 in 10.0 mi Calm Calm - N/A   Clear
9:55 PM 59.0 °F 35.6 °F 42% 29.87 in 10.0 mi Calm Calm - N/A   Clear
10:15 PM 55.4 °F 37.4 °F 51% 29.88 in 10.0 mi Calm Calm - N/A   Clear
10:35 PM 55.4 °F 37.4 °F 51% 29.89 in 10.0 mi Calm Calm - N/A   Clear
10:55 PM 57.2 °F 35.6 °F 44% 29.89 in 10.0 mi Calm Calm - N/A   Clear
11:15 PM 59.0 °F 35.6 °F 42% 29.89 in 10.0 mi Calm Calm - N/A   Clear
11:35 PM 55.4 °F 35.6 °F 47% 29.89 in 10.0 mi ESE 3.5 mph - N/A   Clear
11:55 PM 57.2 °F 35.6 °F 44% 29.88 in 10.0 mi East 5.8 mph - N/A   Clear